Regional Weather Roundup
Issued by NWS Little Rock, AR

Home | Current Version | Previous Version | Graphics & Text | Print | Product List | Glossary On
Versions: 1 2 3 4 5 6 7 8 9 10 11 12 13 14 15 16 17 18 19 20 21 22 23 24 25 26 27 28 29 30 31 32 33 34 35 36 37 38 39 40 41 42 43 44 45 46 47 48 49 50
800
ASUS44 KLZK 160805
RWRLZK

WEATHER ROUNDUP FOR ARKANSAS
NATIONAL WEATHER SERVICE LITTLE ROCK AR
200 AM CST SAT DEC 16 2017

NOTE: "FAIR" INDICATES FEW OR NO CLOUDS BELOW 12,000 FEET WITH NO
SIGNIFICANT WEATHER AND/OR OBSTRUCTIONS TO VISIBILITY.

ARZ001-003-010-029-160900-
NORTHWEST ARKANSAS

CITY           SKY/WX    TMP DP  RH WIND       PRES   REMARKS
FAYETTEVILLE   CLOUDY    34  26  72 SW8       30.09F WCI  27
FORT SMITH     CLOUDY    31  28  89 N5        30.14F WCI  26
HARRISON       CLEAR     34  26  72 S3        30.07S
BENTONVILLE    CLEAR     35  24  64 S6        30.09R WCI  30
ROGERS         CLEAR     37  25  61 S12       30.07S
SILOAM SPGS    CLOUDY    34  25  69 S10       30.08S WCI  26
HIGHFILL       CLOUDY    32  24  72 S6        30.07S WCI  26
$$

ARZ004-005-016-160900-
NORTH CENTRAL ARKANSAS

CITY           SKY/WX    TMP DP  RH WIND       PRES   REMARKS
BATESVILLE     CLEAR     38  28  67 CALM      30.16S
FLIPPIN        CLOUDY    34  26  72 SW3       30.11S
MTN HOME       CLOUDY    34  28  79 SW7       30.09S WCI  28
$$

ARZ040-041-160900-
WEST CENTRAL ARKANSAS

CITY           SKY/WX    TMP DP  RH WIND       PRES   REMARKS
MENA           PTCLDY    30  30 100 CALM      30.15F
MOUNT IDA      CLOUDY    28  26  92 CALM      30.14F
$$

ARZ009-017-025-026-028-160900-
NORTHEAST ARKANSAS

CITY           SKY/WX    TMP DP  RH WIND       PRES   REMARKS
CORNING        FAIR      32  30  93 SW10      30.15R WCI  24
JONESBORO      CLEAR     36  30  79 SW10      30.17R
NEWPORT        CLEAR     31  29  92 S10       30.18  WCI  22
WALNUT RIDGE   PTCLDY    30  27  88 S8        30.16R WCI  22
BLYTHEVILLE    CLEAR     35  29  78 SW12      30.19R WCI  27
$$

ARZ022-023-033-042-044-160900-
CENTRAL ARKANSAS

CITY           SKY/WX    TMP DP  RH WIND       PRES   REMARKS
LITTLE ROCK    CLOUDY    30  28  92 CALM      30.20S
N LITTLE ROCK    N/A     34  29  81 CALM      30.22S
JACKSONVILLE   CLOUDY    27  23  87 CALM      30.18S
SEARCY         CLOUDY    26  26 100 CALM      30.19S
HOT SPRINGS    CLOUDY    31  29  92 NW5       30.18F WCI  26
RUSSELLVILLE   CLOUDY    27  25  92 CALM      30.15F
CLINTON        FAIR      25  23  93 CALM      30.17S
$$

ARZ036-160900-
EAST ARKANSAS

CITY           SKY/WX    TMP DP  RH WIND       PRES   REMARKS
WEST MEMPHIS   CLOUDY    30  27  88 S8        30.21R WCI  22
$$

ARZ050-053-066-070-073-160900-
SOUTHWEST ARKANSAS

CITY           SKY/WX    TMP DP  RH WIND       PRES   REMARKS
ARKADELPHIA    FAIR      25  23  92 CALM      30.22R
CAMDEN         CLOUDY    30  27  86 CALM      30.22S
TEXARKANA      CLOUDY    34  30  85 S5        30.20S WCI  30
EL DORADO      PTCLDY    28  28 100 CALM      30.23S
DE QUEEN       CLOUDY    24  23  96 CALM      30.18S
$$

ARZ056-057-069-160900-
SOUTHEAST ARKANSAS

CITY           SKY/WX    TMP DP  RH WIND       PRES   REMARKS
PINE BLUFF     CLOUDY    33  27  78 S6        30.22R WCI  28
STUTTGART      CLOUDY    34  29  82 SW8       30.22R WCI  27
MONTICELLO     CLOUDY    39  28  64 SW8       30.23S

$$






USA.gov is the U.S. government's official web portal to all federal, state and local government web resources and services.